SCP
0 0 0 0 0 0 0 0 0 0 0 0 0 0 0 0 0 0 0 0 0 0 0 0 0 0 0 0 0 0 0 0 0 0 1 2 2 3 1 1 0 1 1 1
0 0 0 0 0 0 0 0 0 0 0 0 0 0 0 0 0 0 0 0 0 0 0 0 0 0 0 0 0 0 0 0 0 0 1 2 2 1 1 1 1 1 1 1
0 0 0 0 0 0 0 0 0 0 0 0 0 0 0 0 0 0 0 0 0 0 0 0 0 0 0 0 0 0 0 0 0 0 1 2 1 1 0 0 0 0 0 1
0 0 0 0 0 0 0 0 0 0 0 0 0 0 0 0 0 0 0 0 0 0 0 0 0 0 0 0 0 1 0 0 0 0 1 1 1 1 1 0 0 0 0 0
0 0 0 0 0 0 0 0 0 0 0 0 0 0 0 0 0 0 0 0 0 0 0 0 0 0 0 0 0 0 0 1 1 0 1 1 1 0 0 1 0 0 0 0
0 0 0 0 0 0 0 0 0 0 0 0 0 0 0 0 0 0 0 0 0 0 0 0 0 0 0 0 0 0 0 0 0 0 0 0 0 0 1 1 1 0 1 1
0 0 0 0 0 0 0 0 0 0 0 0 0 0 0 0 0 0 0 0 0 0 0 0 0 0 0 0 0 0 0 0 0 0 0 0 0 1 1 1 0 1 0 0
0 0 0 0 0 0 0 0 0 0 0 0 0 0 0 0 0 0 0 0 0 0 0 0 0 0 0 0 0 0 0 0 0 0 0 0 1 1 1 0 1 1 0 0
0 0 0 0 0 0 0 0 0 0 0 0 0 0 0 0 0 0 0 0 0 0 0 0 0 0 0 0 0 0 0 0 0 0 0 0 0 1 1 0 0 0 0 0
0 0 0 0 -0 -0 0 0 0 0 0 0 0 0 0 0 0 0 0 0 0 0 0 0 0 0 0 0 0 0 0 0 0 0 0 0 0 1 1 0 0 0 0 0
0 0 0 0 0 0 -0 0 0 0 0 0 0 0 0 0 0 0 0 0 0 0 0 0 0 0 0 0 0 0 0 0 0 0 0 0 0 0 1 1 0 0 0 0
0 0 0 0 0 0 -0 0 0 0 0 0 0 0 0 0 0 0 0 0 0 0 0 0 0 0 0 0 0 0 0 0 0 0 0 0 0 0 0 0 0 0 0 0
0 0 0 0 0 0 0 0 0 -0 -0 0 0 0 0 0 0 0 0 0 0 0 0 0 0 0 0 0 0 0 0 -0 0 0 0 0 0 0 0 0 0 0 0 0
0 0 0 0 0 -0 0 0 0 0 -0 -0 0 0 0 0 -0 0 0 0 0 0 0 0 0 0 0 0 0 0 0 -0 0 0 0 0 0 0 0 0 0 0 0 0
-0 0 0 0 0 0 0 0 -0 0 0 0 0 0 -0 -0 0 0 0 0 0 0 0 0 0 0 0 0 0 0 0 -0 0 0 0 0 0 0 0 0 0 0 0 0
-0 0 0 -0 0 0 0 0 -0 0 0 0 0 0 0 0 0 0 0 0 0 0 0 0 0 0 0 0 0 0 0 0 0 0 0 0 0 0 0 0 0 0 0 0
-0 0 0 0 -0 0 0 0 0 0 -0 0 0 0 0 0 0 0 0 0 0 0 0 0 0 0 0 0 0 0 0 0 0 0 0 0 0 0 0 0 0 0 0 0
-0 -0 -0 0 -0 0 0 0 0 0 0 0 0 0 0 0 0 0 0 0 0 0 0 0 0 0 0 0 0 0 0 0 0 0 0 0 0 0 0 0 0 0 0 0
-0 0 -0 0 0 0 -0 -0 0 0 0 0 0 0 0 0 0 0 0 0 0 0 0 0 0 0 0 0 0 0 0 0 0 0 0 0 0 0 0 0 0 0 0 0
-0 -0 -0 -0 0 0 0 -0 -0 -0 0 0 0 0 0 0 0 0 0 0 0 0 0 0 0 0 0 0 0 0 0 0 0 0 0 0 0 0 0 0 0 0 0 0
-0 -0 -0 -0 -0 -0 -0 -0 -0 -0 0 0 -0 -0 -0 -0 0 0 0 0 0 0 0 0 0 0 0 0 0 0 0 0 0 0 0 0 0 0 0 0 0 0 0 0
0 -0 -0 -0 0 0 0 -0 0 -0 -0 0 0 0 0 -0 -0 0 0 0 0 0 0 0 0 0 0 0 0 0 0 0 0 0 0 0 0 0 0 0 0 0 0 0
0 0 -0 0 0 -0 0 0 -0 -0 -0 0 0 -0 -0 -0 -0 -0 0 0 0 0 0 0 0 0 0 0 0 0 0 0 0 0 -0 0 0 0 0 0 0 0 0 0
0 0 0 0 -0 -0 -0 -0 -0 0 -0 -0 -0 -0 -0 -0 -0 0 0 0 0 0 0 0 0 0 0 -0 0 0 0 0 0 0 0 0 0 0 0 0 0 0 0 0
-0 0 -0 0 0 -0 -0 -0 -0 -0 -0 -0 -0 -0 -0 0 0 0 0 0 0 0 0 0 0 0 0 0 0 0 0 0 0 0 0 0 0 0 0 0 0 0 0 0
0 -0 0 0 -0 -0 -0 -0 -0 -0 -0 -0 -0 -0 -0 -0 0 0 0 0 0 0 0 0 0 0 0 0 0 0 0 0 0 0 0 0 0 0 0 0 0 0 0 0
Wind_Speed_500mb
35 29 38 43 45 52 48 48 48 45 28 30 44 35 39 40 43 40 43 37 39 38 34 32 21 20 21 24 28 37 40 47 51 52 54 61 65 74 69 78 69 62 63 60
30 38 35 39 46 49 50 47 52 49 42 33 36 45 40 42 34 38 48 44 42 34 25 21 15 16 19 21 23 30 35 36 42 50 51 56 70 81 75 73 71 69 63 62
43 45 23 29 41 48 48 49 47 49 38 31 40 48 48 51 51 53 47 44 30 19 20 13 13 13 12 13 18 22 27 31 35 42 47 60 66 70 69 77 76 70 68 59
30 30 43 48 39 36 42 40 46 44 35 36 43 42 46 43 41 39 48 33 24 26 17 9 8 10 13 16 20 18 17 23 31 37 46 60 67 68 69 72 73 66 58 49
38 40 23 37 45 40 45 33 28 27 32 39 47 31 33 24 30 24 30 30 25 17 10 3 6 11 12 19 21 19 13 18 27 33 44 47 61 49 38 45 50 69 57 50
47 50 38 38 35 35 41 46 38 30 29 31 53 43 37 31 35 35 28 28 22 17 10 2 6 12 14 19 24 23 19 16 29 30 52 47 61 43 47 43 52 43 49 54
40 37 34 43 38 34 31 28 22 21 23 40 40 40 34 20 30 38 31 25 15 13 6 1 8 14 18 21 24 24 22 18 20 28 38 55 51 50 43 43 39 40 51 56
31 34 14 18 29 33 40 35 24 31 27 32 47 32 33 44 15 25 28 21 14 10 3 3 8 14 19 22 26 26 24 19 19 23 35 55 50 47 40 38 40 41 45 44
26 39 15 14 15 21 25 31 40 44 40 20 19 31 11 18 28 23 25 21 10 8 6 7 10 13 17 26 29 29 21 17 26 28 28 54 56 47 42 35 41 37 40 37
32 38 36 37 21 25 14 27 20 16 12 37 29 28 16 34 30 26 21 15 9 3 7 10 12 14 22 28 29 28 27 21 22 26 30 41 51 59 38 36 42 41 36 36
35 34 38 43 28 22 2 22 26 23 20 24 30 27 33 35 31 27 20 8 1 9 15 17 17 17 20 24 28 31 31 30 26 23 28 35 45 52 50 43 39 41 35 37
35 16 25 39 23 8 12 11 4 12 35 28 32 15 33 40 29 22 18 4 6 15 22 26 23 23 20 24 28 32 33 33 33 29 24 37 46 53 58 55 47 39 38 38
19 13 18 28 31 17 5 7 3 12 5 19 26 10 21 17 28 22 6 6 13 17 27 31 28 25 24 22 29 29 31 37 37 32 26 35 45 52 56 52 46 48 46 38
20 30 32 25 30 10 27 13 20 14 15 16 16 13 4 12 26 2 8 17 21 22 31 32 31 27 24 19 25 30 31 41 47 33 26 30 44 53 56 50 46 48 44 44
27 32 33 35 44 43 34 32 23 20 26 29 32 13 22 28 18 20 20 20 27 26 32 32 23 21 24 26 31 34 39 35 40 40 34 30 42 52 55 50 49 50 44 39
16 17 31 33 36 41 43 40 29 30 29 33 36 38 28 30 17 22 28 30 33 36 37 25 19 26 29 30 33 36 41 40 36 44 36 43 41 57 53 49 50 43 41 37
28 24 24 31 32 27 29 35 36 36 32 29 31 33 31 28 25 30 36 39 42 41 20 23 24 25 28 30 31 33 40 42 38 37 43 44 46 54 52 52 52 50 46 38
30 31 24 25 33 30 25 13 25 22 23 32 34 34 30 26 38 47 47 52 42 21 16 19 23 27 28 30 32 40 39 39 38 37 50 40 48 53 49 56 58 56 48 42
15 20 13 9 19 30 34 18 23 26 26 26 28 29 32 43 47 40 26 24 17 18 17 21 27 29 30 32 37 38 39 38 37 33 51 37 43 53 50 62 64 57 52 46
19 24 20 21 10 8 4 7 15 24 23 26 30 30 35 40 15 12 25 23 23 21 19 24 26 25 28 36 36 36 40 39 33 30 43 39 46 55 57 67 64 60 54 50
24 15 20 21 15 12 28 36 28 12 10 29 32 37 34 11 11 10 12 18 20 22 23 25 24 25 31 36 36 33 39 41 35 32 28 35 50 55 72 67 62 64 61 58
11 17 13 9 9 5 53 28 21 27 44 32 33 34 27 23 8 8 16 20 23 24 26 27 27 27 29 35 35 34 36 39 33 25 25 36 42 66 76 73 68 70 68 65
7 11 12 12 13 29 41 23 41 41 26 25 24 23 21 21 21 18 18 20 22 27 29 29 29 29 29 35 37 37 38 35 30 27 18 27 39 73 82 74 75 81 76 74
7 17 5 21 15 31 36 51 50 48 36 29 27 27 27 28 28 23 25 26 27 28 32 33 32 32 35 36 36 34 34 31 24 20 17 14 24 52 74 78 79 82 83 81
10 13 21 7 12 36 24 48 43 38 39 38 31 29 29 24 25 24 23 26 28 30 31 30 31 32 35 37 37 32 29 26 19 14 6 5 11 33 52 71 74 81 80 79
13 6 9 8 26 23 25 43 42 42 43 38 34 32 31 32 30 26 25 25 27 30 33 33 33 33 33 34 36 32 26 21 15 9 12 19 15 26 34 53 55 48 59 73
Wind_Direction_500mb
203 227 236 238 232 252 269 270 271 270 266 271 268 258 257 252 224 222 240 241 252 239 230 223 233 235 253 259 262 257 257 256 241 231 224 220 223 231 230 227 220 233 237 230
253 236 253 259 258 261 254 254 261 269 276 274 267 274 270 273 256 228 242 248 239 233 208 216 233 257 261 267 272 269 254 252 239 228 225 223 220 225 226 223 217 220 229 240
257 265 251 264 250 255 254 256 259 266 275 277 272 261 260 260 257 249 237 241 236 197 208 199 233 261 291 309 302 291 256 246 235 222 217 218 225 230 224 228 227 226 233 233
285 283 267 261 249 265 258 257 261 267 268 255 249 264 257 253 228 232 223 210 188 185 192 212 255 288 309 329 331 323 274 246 236 220 223 223 221 215 220 222 226 227 232 231
275 291 252 264 264 254 258 280 282 272 254 269 252 257 255 209 208 195 192 177 176 166 191 229 307 324 323 335 334 329 306 258 238 218 215 222 216 209 228 221 232 226 229 223
270 266 267 274 271 267 259 269 258 251 268 252 246 248 249 231 212 186 178 169 164 166 163 257 336 327 329 333 340 332 319 278 243 232 212 219 212 204 211 204 212 213 217 218
299 286 267 244 244 245 239 232 252 244 228 237 236 235 247 271 220 182 163 163 174 154 165 287 348 338 337 337 338 336 316 291 258 236 218 206 213 207 215 214 210 216 223 225
300 285 268 1 283 266 230 225 220 223 233 248 228 235 251 230 86 86 131 162 168 177 165 303 337 333 334 337 337 340 331 293 270 256 227 209 211 212 211 219 212 217 230 232
315 288 313 298 315 315 255 233 238 256 278 274 254 217 100 135 144 160 162 172 157 188 235 332 326 335 330 336 334 337 334 307 290 272 242 217 210 213 214 217 225 212 229 234
297 295 295 299 227 248 307 291 232 228 218 236 243 220 209 173 168 163 152 152 185 242 303 312 308 309 319 325 330 333 330 302 286 275 259 232 223 211 218 220 226 223 215 228
289 274 278 281 262 300 209 270 221 236 247 259 239 239 227 186 167 161 137 156 69 346 327 310 299 298 310 323 328 330 332 323 283 275 256 247 230 223 218 217 221 217 217 216
297 300 284 277 285 355 257 290 1 254 224 236 255 247 322 153 159 166 147 143 353 319 315 302 286 288 304 324 331 333 329 328 301 265 259 248 227 218 215 211 219 219 214 222
329 286 300 272 251 141 347 315 276 266 230 280 252 205 207 184 182 170 120 1 318 302 301 297 280 279 289 311 327 330 336 339 321 275 255 246 229 219 216 222 218 224 223 219
291 269 263 285 301 177 277 233 288 301 287 306 263 162 156 292 247 300 355 326 309 306 301 298 283 283 289 313 316 323 330 341 341 303 254 248 228 221 210 212 216 214 215 214
231 251 275 286 293 292 282 282 256 265 280 281 292 286 200 249 310 323 332 315 309 304 305 297 287 302 324 316 310 317 316 329 341 330 255 260 236 221 212 214 215 216 214 213
256 268 279 285 281 291 283 275 266 258 263 272 286 289 291 278 313 322 317 311 307 303 299 293 318 314 305 307 311 316 314 312 335 348 278 242 248 217 212 209 207 210 200 203
286 281 289 291 299 297 280 270 267 263 258 256 269 275 294 317 313 316 320 313 307 302 318 309 313 307 311 316 318 315 314 310 321 337 314 240 252 216 209 206 205 201 198 196
271 281 287 288 287 270 278 315 312 313 290 286 282 282 292 324 343 321 309 291 288 344 332 320 316 315 318 317 317 315 318 312 304 329 325 244 235 211 205 204 202 199 197 196
298 285 273 267 281 287 303 358 8 337 308 295 306 313 340 354 328 307 18 21 37 26 344 325 320 320 320 320 322 322 320 315 298 314 325 253 235 211 202 200 200 199 194 193
289 266 267 257 270 287 232 315 310 318 279 23 5 347 334 335 299 335 5 10 15 7 351 334 328 323 322 322 326 326 323 321 307 301 316 269 224 202 199 206 202 196 196 193
323 334 222 244 240 258 354 337 322 250 342 11 5 348 326 311 283 356 6 5 15 355 349 345 337 337 324 326 330 331 324 321 319 298 309 277 232 206 211 206 205 198 194 190
316 338 353 324 249 6 1 329 356 341 334 358 343 356 339 42 58 44 15 13 6 351 351 347 346 338 334 334 337 339 330 329 327 320 306 275 270 215 206 204 198 196 192 190
338 341 310 316 13 353 11 3 4 13 25 16 8 351 1 26 29 25 15 11 4 0 354 350 346 340 336 346 346 343 339 337 339 341 323 298 221 196 204 199 198 189 188 188
302 307 302 319 354 342 26 14 18 20 12 16 16 21 25 29 22 14 10 6 5 2 358 352 351 346 345 351 349 350 349 345 344 358 342 268 219 185 179 186 191 190 184 182
307 327 321 279 4 335 2 2 4 9 18 19 20 29 30 28 23 14 9 4 1 359 358 355 352 349 353 349 352 356 359 358 358 17 26 340 197 198 168 170 175 180 180 186
7 1 339 330 349 321 318 344 0 7 9 10 11 13 19 23 18 11 9 6 3 0 359 358 358 356 355 357 357 8 11 14 17 71 118 132 149 167 178 156 156 163 174 181
Wind_Speed_850mb
35 29 38 43 45 52 48 48 48 45 28 30 44 35 39 40 43 40 43 37 39 38 34 32 21 20 21 24 28 37 40 47 51 52 54 61 65 74 69 78 69 62 63 60
30 38 35 39 46 49 50 47 52 49 42 33 36 45 40 42 34 38 48 44 42 34 25 21 15 16 19 21 23 30 35 36 42 50 51 56 70 81 75 73 71 69 63 62
43 45 23 29 41 48 48 49 47 49 38 31 40 48 48 51 51 53 47 44 30 19 20 13 13 13 12 13 18 22 27 31 35 42 47 60 66 70 69 77 76 70 68 59
30 30 43 48 39 36 42 40 46 44 35 36 43 42 46 43 41 39 48 33 24 26 17 9 8 10 13 16 20 18 17 23 31 37 46 60 67 68 69 72 73 66 58 49
38 40 23 37 45 40 45 33 28 27 32 39 47 31 33 24 30 24 30 30 25 17 10 3 6 11 12 19 21 19 13 18 27 33 44 47 61 49 38 45 50 69 57 50
47 50 38 38 35 35 41 46 38 30 29 31 53 43 37 31 35 35 28 28 22 17 10 2 6 12 14 19 24 23 19 16 29 30 52 47 61 43 47 43 52 43 49 54
40 37 34 43 38 34 31 28 22 21 23 40 40 40 34 20 30 38 31 25 15 13 6 1 8 14 18 21 24 24 22 18 20 28 38 55 51 50 43 43 39 40 51 56
31 34 14 18 29 33 40 35 24 31 27 32 47 32 33 44 15 25 28 21 14 10 3 3 8 14 19 22 26 26 24 19 19 23 35 55 50 47 40 38 40 41 45 44
26 39 15 14 15 21 25 31 40 44 40 20 19 31 11 18 28 23 25 21 10 8 6 7 10 13 17 26 29 29 21 17 26 28 28 54 56 47 42 35 41 37 40 37
32 38 36 37 21 25 14 27 20 16 12 37 29 28 16 34 30 26 21 15 9 3 7 10 12 14 22 28 29 28 27 21 22 26 30 41 51 59 38 36 42 41 36 36
35 34 38 43 28 22 2 22 26 23 20 24 30 27 33 35 31 27 20 8 1 9 15 17 17 17 20 24 28 31 31 30 26 23 28 35 45 52 50 43 39 41 35 37
35 16 25 39 23 8 12 11 4 12 35 28 32 15 33 40 29 22 18 4 6 15 22 26 23 23 20 24 28 32 33 33 33 29 24 37 46 53 58 55 47 39 38 38
19 13 18 28 31 17 5 7 3 12 5 19 26 10 21 17 28 22 6 6 13 17 27 31 28 25 24 22 29 29 31 37 37 32 26 35 45 52 56 52 46 48 46 38
20 30 32 25 30 10 27 13 20 14 15 16 16 13 4 12 26 2 8 17 21 22 31 32 31 27 24 19 25 30 31 41 47 33 26 30 44 53 56 50 46 48 44 44
27 32 33 35 44 43 34 32 23 20 26 29 32 13 22 28 18 20 20 20 27 26 32 32 23 21 24 26 31 34 39 35 40 40 34 30 42 52 55 50 49 50 44 39
16 17 31 33 36 41 43 40 29 30 29 33 36 38 28 30 17 22 28 30 33 36 37 25 19 26 29 30 33 36 41 40 36 44 36 43 41 57 53 49 50 43 41 37
28 24 24 31 32 27 29 35 36 36 32 29 31 33 31 28 25 30 36 39 42 41 20 23 24 25 28 30 31 33 40 42 38 37 43 44 46 54 52 52 52 50 46 38
30 31 24 25 33 30 25 13 25 22 23 32 34 34 30 26 38 47 47 52 42 21 16 19 23 27 28 30 32 40 39 39 38 37 50 40 48 53 49 56 58 56 48 42
15 20 13 9 19 30 34 18 23 26 26 26 28 29 32 43 47 40 26 24 17 18 17 21 27 29 30 32 37 38 39 38 37 33 51 37 43 53 50 62 64 57 52 46
19 24 20 21 10 8 4 7 15 24 23 26 30 30 35 40 15 12 25 23 23 21 19 24 26 25 28 36 36 36 40 39 33 30 43 39 46 55 57 67 64 60 54 50
24 15 20 21 15 12 28 36 28 12 10 29 32 37 34 11 11 10 12 18 20 22 23 25 24 25 31 36 36 33 39 41 35 32 28 35 50 55 72 67 62 64 61 58
11 17 13 9 9 5 53 28 21 27 44 32 33 34 27 23 8 8 16 20 23 24 26 27 27 27 29 35 35 34 36 39 33 25 25 36 42 66 76 73 68 70 68 65
7 11 12 12 13 29 41 23 41 41 26 25 24 23 21 21 21 18 18 20 22 27 29 29 29 29 29 35 37 37 38 35 30 27 18 27 39 73 82 74 75 81 76 74
7 17 5 21 15 31 36 51 50 48 36 29 27 27 27 28 28 23 25 26 27 28 32 33 32 32 35 36 36 34 34 31 24 20 17 14 24 52 74 78 79 82 83 81
10 13 21 7 12 36 24 48 43 38 39 38 31 29 29 24 25 24 23 26 28 30 31 30 31 32 35 37 37 32 29 26 19 14 6 5 11 33 52 71 74 81 80 79
13 6 9 8 26 23 25 43 42 42 43 38 34 32 31 32 30 26 25 25 27 30 33 33 33 33 33 34 36 32 26 21 15 9 12 19 15 26 34 53 55 48 59 73
Wind_Direction_850mb
203 227 236 238 232 252 269 270 271 270 266 271 268 258 257 252 224 222 240 241 252 239 230 223 233 235 253 259 262 257 257 256 241 231 224 220 223 231 230 227 220 233 237 230
253 236 253 259 258 261 254 254 261 269 276 274 267 274 270 273 256 228 242 248 239 233 208 216 233 257 261 267 272 269 254 252 239 228 225 223 220 225 226 223 217 220 229 240
257 265 251 264 250 255 254 256 259 266 275 277 272 261 260 260 257 249 237 241 236 197 208 199 233 261 291 309 302 291 256 246 235 222 217 218 225 230 224 228 227 226 233 233
285 283 267 261 249 265 258 257 261 267 268 255 249 264 257 253 228 232 223 210 188 185 192 212 255 288 309 329 331 323 274 246 236 220 223 223 221 215 220 222 226 227 232 231
275 291 252 264 264 254 258 280 282 272 254 269 252 257 255 209 208 195 192 177 176 166 191 229 307 324 323 335 334 329 306 258 238 218 215 222 216 209 228 221 232 226 229 223
270 266 267 274 271 267 259 269 258 251 268 252 246 248 249 231 212 186 178 169 164 166 163 257 336 327 329 333 340 332 319 278 243 232 212 219 212 204 211 204 212 213 217 218
299 286 267 244 244 245 239 232 252 244 228 237 236 235 247 271 220 182 163 163 174 154 165 287 348 338 337 337 338 336 316 291 258 236 218 206 213 207 215 214 210 216 223 225
300 285 268 1 283 266 230 225 220 223 233 248 228 235 251 230 86 86 131 162 168 177 165 303 337 333 334 337 337 340 331 293 270 256 227 209 211 212 211 219 212 217 230 232
315 288 313 298 315 315 255 233 238 256 278 274 254 217 100 135 144 160 162 172 157 188 235 332 326 335 330 336 334 337 334 307 290 272 242 217 210 213 214 217 225 212 229 234
297 295 295 299 227 248 307 291 232 228 218 236 243 220 209 173 168 163 152 152 185 242 303 312 308 309 319 325 330 333 330 302 286 275 259 232 223 211 218 220 226 223 215 228
289 274 278 281 262 300 209 270 221 236 247 259 239 239 227 186 167 161 137 156 69 346 327 310 299 298 310 323 328 330 332 323 283 275 256 247 230 223 218 217 221 217 217 216
297 300 284 277 285 355 257 290 1 254 224 236 255 247 322 153 159 166 147 143 353 319 315 302 286 288 304 324 331 333 329 328 301 265 259 248 227 218 215 211 219 219 214 222
329 286 300 272 251 141 347 315 276 266 230 280 252 205 207 184 182 170 120 1 318 302 301 297 280 279 289 311 327 330 336 339 321 275 255 246 229 219 216 222 218 224 223 219
291 269 263 285 301 177 277 233 288 301 287 306 263 162 156 292 247 300 355 326 309 306 301 298 283 283 289 313 316 323 330 341 341 303 254 248 228 221 210 212 216 214 215 214
231 251 275 286 293 292 282 282 256 265 280 281 292 286 200 249 310 323 332 315 309 304 305 297 287 302 324 316 310 317 316 329 341 330 255 260 236 221 212 214 215 216 214 213
256 268 279 285 281 291 283 275 266 258 263 272 286 289 291 278 313 322 317 311 307 303 299 293 318 314 305 307 311 316 314 312 335 348 278 242 248 217 212 209 207 210 200 203
286 281 289 291 299 297 280 270 267 263 258 256 269 275 294 317 313 316 320 313 307 302 318 309 313 307 311 316 318 315 314 310 321 337 314 240 252 216 209 206 205 201 198 196
271 281 287 288 287 270 278 315 312 313 290 286 282 282 292 324 343 321 309 291 288 344 332 320 316 315 318 317 317 315 318 312 304 329 325 244 235 211 205 204 202 199 197 196
298 285 273 267 281 287 303 358 8 337 308 295 306 313 340 354 328 307 18 21 37 26 344 325 320 320 320 320 322 322 320 315 298 314 325 253 235 211 202 200 200 199 194 193
289 266 267 257 270 287 232 315 310 318 279 23 5 347 334 335 299 335 5 10 15 7 351 334 328 323 322 322 326 326 323 321 307 301 316 269 224 202 199 206 202 196 196 193
323 334 222 244 240 258 354 337 322 250 342 11 5 348 326 311 283 356 6 5 15 355 349 345 337 337 324 326 330 331 324 321 319 298 309 277 232 206 211 206 205 198 194 190
316 338 353 324 249 6 1 329 356 341 334 358 343 356 339 42 58 44 15 13 6 351 351 347 346 338 334 334 337 339 330 329 327 320 306 275 270 215 206 204 198 196 192 190
338 341 310 316 13 353 11 3 4 13 25 16 8 351 1 26 29 25 15 11 4 0 354 350 346 340 336 346 346 343 339 337 339 341 323 298 221 196 204 199 198 189 188 188
302 307 302 319 354 342 26 14 18 20 12 16 16 21 25 29 22 14 10 6 5 2 358 352 351 346 345 351 349 350 349 345 344 358 342 268 219 185 179 186 191 190 184 182
307 327 321 279 4 335 2 2 4 9 18 19 20 29 30 28 23 14 9 4 1 359 358 355 352 349 353 349 352 356 359 358 358 17 26 340 197 198 168 170 175 180 180 186
7 1 339 330 349 321 318 344 0 7 9 10 11 13 19 23 18 11 9 6 3 0 359 358 358 356 355 357 357 8 11 14 17 71 118 132 149 167 178 156 156 163 174 181